Radiation Dose at Monitoring Post of Fukushima Daini Nuclear Power Station
Date,Time,MP-1(microSv/h),MP-2(microSv/h),MP-3(microSv/h),MP-4(microSv/h),MP-5(microSv/h),MP-6(microSv/h),MP-7(microSv/h),Wind Direction,Wind Velocity(m/s),Rain
2015/10/24,00:00,0.510,0.291,0.535,0.489,0.456,0.240,0.210,south-southwest,3.3,No
2015/10/24,00:10,0.516,0.292,0.531,0.491,0.461,0.240,0.210,south-southwest,4.2,No
2015/10/24,00:20,0.511,0.291,0.534,0.489,0.456,0.239,0.209,south-southwest,5.6,No
2015/10/24,00:30,0.514,0.291,0.533,0.490,0.461,0.239,0.209,south,4.6,No
2015/10/24,00:40,0.511,0.292,0.534,0.488,0.457,0.239,0.209,south,4.7,No
2015/10/24,00:50,0.516,0.289,0.532,0.489,0.460,0.239,0.210,south,5.8,No
2015/10/24,01:00,0.510,0.293,0.532,0.490,0.456,0.238,0.209,south,6.8,No
2015/10/24,01:10,0.515,0.290,0.535,0.488,0.459,0.239,0.210,south,7.1,No
2015/10/24,01:20,0.512,0.292,0.532,0.491,0.458,0.240,0.209,south,6.9,No
2015/10/24,01:30,0.516,0.292,0.535,0.488,0.457,0.239,0.209,south,6.1,No
2015/10/24,01:40,0.512,0.290,0.531,0.492,0.460,0.240,0.209,south,4.5,No
2015/10/24,01:50,0.515,0.291,0.538,0.488,0.456,0.239,0.209,south,5.8,No
2015/10/24,02:00,0.512,0.290,0.531,0.490,0.460,0.240,0.208,south,3.8,No
2015/10/24,02:10,0.513,0.293,0.536,0.488,0.457,0.239,0.209,south-southwest,1.1,No
2015/10/24,02:20,0.512,0.291,0.531,0.492,0.461,0.239,0.209,south,1.6,No
2015/10/24,02:30,0.512,0.293,0.535,0.490,0.455,0.239,0.209,south,1.1,No
2015/10/24,02:40,0.514,0.292,0.532,0.489,0.463,0.240,0.209,south-southeast,1.6,No
2015/10/24,02:50,0.513,0.290,0.534,0.492,0.455,0.239,0.209,south,2.1,No
2015/10/24,03:00,0.516,0.291,0.534,0.487,0.459,0.238,0.209,south-southwest,2.3,No
2015/10/24,03:10,0.512,0.290,0.534,0.493,0.457,0.240,0.209,south-southwest,4.2,No
2015/10/24,03:20,0.515,0.292,0.533,0.489,0.459,0.238,0.210,south-southwest,5.0,No
2015/10/24,03:30,0.511,0.291,0.531,0.492,0.458,0.238,0.209,south-southwest,4.9,No
2015/10/24,03:40,0.513,0.290,0.536,0.487,0.458,0.239,0.210,southwest,5.9,No
2015/10/24,03:50,0.512,0.292,0.531,0.492,0.459,0.239,0.210,southwest,6.1,No
2015/10/24,04:00,0.515,0.291,0.534,0.488,0.458,0.239,0.209,southwest,4.4,No
2015/10/24,04:10,0.513,0.293,0.529,0.488,0.459,0.239,0.210,southwest,4.5,No
2015/10/24,04:20,0.513,0.291,0.533,0.491,0.456,0.239,0.210,southwest,4.7,No
2015/10/24,04:30,0.515,0.292,0.530,0.487,0.460,0.238,0.209,southwest,4.3,No
2015/10/24,04:40,0.512,0.291,0.533,0.490,0.455,0.238,0.210,southwest,3.1,No
2015/10/24,04:50,0.512,0.289,0.531,0.488,0.459,0.240,0.209,west-southwest,2.6,No
2015/10/24,05:00,0.512,0.291,0.533,0.492,0.455,0.239,0.209,south-southwest,3.9,No
2015/10/24,05:10,0.515,0.289,0.532,0.488,0.460,0.239,0.210,southwest,4.9,No
2015/10/24,05:20,0.510,0.292,0.532,0.490,0.458,0.239,0.209,west-southwest,5.2,No
2015/10/24,05:30,0.513,0.290,0.533,0.488,0.458,0.238,0.209,west-southwest,5.1,No
2015/10/24,05:40,0.511,0.291,0.532,0.490,0.458,0.240,0.210,west-southwest,4.5,No
2015/10/24,05:50,0.515,0.292,0.531,0.488,0.459,0.239,0.208,west-southwest,4.4,No
2015/10/24,06:00,0.513,0.290,0.531,0.487,0.458,0.240,0.209,southwest,4.2,No
2015/10/24,06:10,0.512,0.293,0.533,0.489,0.456,0.238,0.209,west-southwest,2.5,No
2015/10/24,06:20,0.514,0.290,0.531,0.487,0.459,0.238,0.209,west,1.1,No
2015/10/24,06:30,0.512,0.292,0.533,0.490,0.457,0.239,0.209,north,0.8,No
2015/10/24,06:40,0.511,0.290,0.530,0.488,0.458,0.238,0.210,east-northeast,1.1,No
2015/10/24,06:50,0.511,0.291,0.533,0.490,0.456,0.239,0.210,east-northeast,1.4,No
2015/10/24,07:00,0.514,0.291,0.533,0.487,0.459,0.239,0.208,east-northeast,1.0,No
2015/10/24,07:10,0.512,0.291,0.530,0.490,0.457,0.239,0.210,south-southwest,0.5,No
2015/10/24,07:20,0.512,0.291,0.530,0.485,0.458,0.239,0.208,south,1.4,No
2015/10/24,07:30,0.513,0.291,0.530,0.488,0.458,0.239,0.210,south,2.0,No
2015/10/24,07:40,0.512,0.290,0.532,0.490,0.454,0.238,0.210,south,4.0,No
2015/10/24,07:50,0.512,0.291,0.531,0.485,0.459,0.238,0.208,south,4.5,No
2015/10/24,08:00,0.509,0.290,0.534,0.490,0.454,0.239,0.210,south,3.8,No
2015/10/24,08:10,0.514,0.292,0.528,0.486,0.461,0.241,0.208,south-southeast,3.6,No
2015/10/24,08:20,0.510,0.289,0.535,0.487,0.455,0.238,0.208,south,5.8,No
2015/10/24,08:30,0.515,0.292,0.528,0.491,0.459,0.240,0.209,south,4.8,No
2015/10/24,08:40,0.510,0.290,0.535,0.485,0.458,0.239,0.209,south,4.4,No
2015/10/24,08:50,0.512,0.288,0.533,0.490,0.453,0.239,0.209,south,3.8,No
2015/10/24,09:00,0.513,0.292,0.530,0.490,0.460,0.240,0.209,south,3.3,No
2015/10/24,09:10,0.508,0.290,0.534,0.485,0.458,0.238,0.209,south-southwest,3.3,No
2015/10/24,09:20,0.513,0.290,0.529,0.489,0.455,0.240,0.208,south,3.9,No
2015/10/24,09:30,0.512,0.292,0.534,0.491,0.460,0.239,0.210,south,3.9,No
2015/10/24,09:40,0.508,0.289,0.531,0.484,0.457,0.238,0.209,south-southwest,3.9,No
2015/10/24,09:50,0.509,0.288,0.528,0.486,0.453,0.240,0.208,south,4.0,No
2015/10/24,10:00,0.513,0.292,0.533,0.491,0.460,0.239,0.210,south,3.5,No
2015/10/24,10:10,0.512,0.292,0.528,0.488,0.458,0.239,0.209,south-southwest,4.1,No
2015/10/24,10:20,0.508,0.290,0.529,0.485,0.455,0.239,0.208,south,5.2,No
2015/10/24,10:30,0.509,0.289,0.536,0.485,0.453,0.240,0.209,south,5.0,No
2015/10/24,10:40,0.516,0.292,0.530,0.491,0.459,0.238,0.209,south,6.2,No
2015/10/24,10:50,0.511,0.291,0.525,0.489,0.459,0.239,0.209,south,7.2,No
2015/10/24,11:00,0.508,0.291,0.535,0.487,0.456,0.238,0.208,south,6.9,No
2015/10/24,11:10,0.507,0.287,0.532,0.484,0.455,0.240,0.208,south,6.8,No
2015/10/24,11:20,0.508,0.290,0.529,0.482,0.451,0.238,0.209,south,7.5,No
2015/10/24,11:30,0.517,0.293,0.531,0.490,0.458,0.238,0.210,south,6.7,No
2015/10/24,11:40,0.513,0.290,0.534,0.494,0.460,0.240,0.208,south,6.7,No
2015/10/24,11:50,0.510,0.289,0.532,0.490,0.458,0.239,0.207,south-southwest,7.1,No
2015/10/24,12:00,0.507,0.288,0.528,0.487,0.457,0.238,0.210,south,6.7,No
2015/10/24,12:10,0.515,0.293,0.526,0.486,0.454,0.239,0.210,south-southwest,7.7,No
2015/10/24,12:20,0.515,0.293,0.526,0.484,0.454,0.239,0.209,south,8.3,No
2015/10/24,12:30,0.511,0.290,0.532,0.485,0.454,0.240,0.208,south,8.4,No
2015/10/24,12:40,0.511,0.289,0.533,0.488,0.458,0.239,0.209,south-southwest,8.2,No
2015/10/24,12:50,0.516,0.288,0.531,0.492,0.461,0.239,0.210,south,8.3,No
2015/10/24,13:00,0.514,0.290,0.528,0.489,0.458,0.240,0.210,south,8.6,No
2015/10/24,13:10,0.510,0.293,0.528,0.488,0.456,0.240,0.209,south,8.1,No
2015/10/24,13:20,0.514,0.291,0.526,0.486,0.455,0.239,0.208,south,8.3,No
2015/10/24,13:30,0.514,0.291,0.535,0.484,0.454,0.239,0.210,south,8.5,No
2015/10/24,13:40,0.510,0.289,0.534,0.490,0.459,0.240,0.208,south,8.8,No
2015/10/24,13:50,0.511,0.289,0.532,0.491,0.462,0.240,0.207,south,9.4,No
2015/10/24,14:00,0.516,0.292,0.530,0.488,0.458,0.239,0.210,south,9.8,No
2015/10/24,14:10,0.513,0.291,0.532,0.487,0.455,0.238,0.211,south,9.4,No
2015/10/24,14:20,0.511,0.290,0.537,0.495,0.455,0.239,0.209,south,8.1,No
2015/10/24,14:30,0.515,0.291,0.532,0.493,0.462,0.240,0.211,south,8.3,No
2015/10/24,14:40,0.512,0.294,0.534,0.488,0.458,0.240,0.210,south,7.5,No
2015/10/24,14:50,0.513,0.292,0.539,0.494,0.455,0.238,0.209,south,8.6,No
2015/10/24,15:00,0.517,0.292,0.533,0.494,0.462,0.240,0.210,south,7.5,No
2015/10/24,15:10,0.511,0.293,0.533,0.489,0.460,0.241,0.209,south,6.8,No
2015/10/24,15:20,0.514,0.291,0.536,0.496,0.455,0.239,0.209,south-southwest,7.0,No
2015/10/24,15:30,0.515,0.293,0.532,0.494,0.465,0.239,0.210,south,7.3,No
2015/10/24,15:40,0.509,0.294,0.534,0.489,0.459,0.240,0.208,south-southwest,6.8,No
2015/10/24,15:50,0.516,0.291,0.536,0.494,0.458,0.240,0.210,south-southwest,7.6,No
2015/10/24,16:00,0.514,0.293,0.530,0.489,0.461,0.239,0.208,south-southwest,6.7,No
2015/10/24,16:10,0.513,0.291,0.537,0.490,0.456,0.241,0.211,south-southwest,6.9,No
2015/10/24,16:20,0.517,0.293,0.536,0.494,0.460,0.239,0.210,south-southwest,6.4,No
2015/10/24,16:30,0.511,0.292,0.530,0.489,0.461,0.239,0.210,south-southwest,6.7,No
2015/10/24,16:40,0.511,0.292,0.536,0.495,0.456,0.241,0.210,south-southwest,6.9,No
2015/10/24,16:50,0.514,0.294,0.532,0.494,0.463,0.239,0.209,south-southwest,6.7,No
2015/10/24,17:00,0.510,0.291,0.532,0.488,0.460,0.240,0.210,southwest,5.3,No
2015/10/24,17:10,0.516,0.294,0.538,0.495,0.459,0.239,0.210,southwest,3.7,No
2015/10/24,17:20,0.514,0.293,0.531,0.491,0.459,0.241,0.211,southwest,3.3,No
2015/10/24,17:30,0.514,0.292,0.537,0.492,0.458,0.242,0.210,southwest,2.4,No
2015/10/24,17:40,0.514,0.293,0.535,0.492,0.463,0.240,0.210,southwest,2.7,No
2015/10/24,17:50,0.513,0.293,0.533,0.491,0.457,0.241,0.211,southwest,3.4,No
2015/10/24,18:00,0.516,0.293,0.536,0.497,0.462,0.240,0.210,west-southwest,3.7,No
2015/10/24,18:10,0.514,0.294,0.530,0.488,0.458,0.240,0.211,west-southwest,4.1,No
2015/10/24,18:20,0.517,0.293,0.537,0.496,0.463,0.240,0.211,west-southwest,4.3,No
2015/10/24,18:30,0.512,0.293,0.531,0.490,0.458,0.241,0.211,west-southwest,4.4,No
2015/10/24,18:40,0.516,0.294,0.537,0.494,0.462,0.240,0.211,west-southwest,4.5,No
2015/10/24,18:50,0.511,0.293,0.534,0.489,0.460,0.241,0.212,southwest,5.0,No
2015/10/24,19:00,0.516,0.292,0.538,0.494,0.459,0.240,0.211,south-southwest,3.7,No
2015/10/24,19:10,0.513,0.293,0.534,0.490,0.460,0.241,0.210,southwest,5.7,No
2015/10/24,19:20,0.514,0.292,0.535,0.493,0.458,0.240,0.212,west-southwest,3.6,No
2015/10/24,19:30,0.512,0.294,0.536,0.491,0.460,0.242,0.211,west-southwest,2.9,No
2015/10/24,19:40,0.514,0.293,0.534,0.491,0.457,0.240,0.211,west-southwest,3.1,No
2015/10/24,19:50,0.514,0.293,0.537,0.494,0.461,0.241,0.210,west-southwest,4.0,No
2015/10/24,20:00,0.514,0.291,0.531,0.489,0.457,0.240,0.210,west,4.7,No
2015/10/24,20:10,0.516,0.294,0.536,0.491,0.461,0.240,0.210,west-southwest,4.2,No
2015/10/24,20:20,0.512,0.290,0.532,0.488,0.456,0.239,0.210,south-southwest,3.2,No
2015/10/24,20:30,0.518,0.293,0.535,0.494,0.463,0.240,0.211,south-southwest,5.3,No
2015/10/24,20:40,0.512,0.290,0.536,0.489,0.455,0.240,0.210,south-southwest,5.6,No
2015/10/24,20:50,0.518,0.293,0.532,0.493,0.462,0.241,0.211,south,3.4,No
2015/10/24,21:00,0.512,0.291,0.537,0.488,0.456,0.240,0.210,south-southwest,2.8,No
2015/10/24,21:10,0.516,0.293,0.530,0.494,0.461,0.242,0.211,northwest,1.3,No
2015/10/24,21:20,0.513,0.291,0.537,0.488,0.457,0.240,0.211,west,2.7,No
2015/10/24,21:30,0.514,0.293,0.532,0.495,0.461,0.241,0.210,northwest,2.2,No
2015/10/24,21:40,0.514,0.292,0.536,0.490,0.458,0.239,0.209,northwest,3.3,No
2015/10/24,21:50,0.511,0.293,0.533,0.491,0.458,0.240,0.210,west-northwest,4.7,No
2015/10/24,22:00,0.514,0.292,0.535,0.493,0.461,0.240,0.208,north-northwest,2.8,No
2015/10/24,22:10,0.509,0.292,0.534,0.490,0.455,0.241,0.210,north,7.8,No
2015/10/24,22:20,0.516,0.292,0.532,0.493,0.460,0.239,0.210,north,8.1,No
2015/10/24,22:30,0.510,0.291,0.537,0.490,0.456,0.240,0.211,north-northwest,9.0,Yes
2015/10/24,22:40,0.515,0.293,0.531,0.492,0.460,0.241,0.210,north-northwest,9.7,No
2015/10/24,22:50,0.513,0.292,0.537,0.488,0.458,0.241,0.211,north-northwest,6.4,No
2015/10/24,23:00,0.517,0.293,0.533,0.494,0.461,0.239,0.209,north-northwest,6.2,No
2015/10/24,23:10,0.513,0.291,0.538,0.490,0.459,0.239,0.211,north-northwest,4.4,No
2015/10/24,23:20,0.515,0.291,0.534,0.493,0.461,0.241,0.210,north-northwest,4.2,No
2015/10/24,23:30,0.514,0.292,0.537,0.490,0.459,0.240,0.210,north,5.4,No
2015/10/24,23:40,0.515,0.294,0.533,0.491,0.462,0.241,0.209,north,4.7,No
2015/10/24,23:50,0.516,0.294,0.537,0.492,0.461,0.241,0.210,north,5.1,No
